TimeCST,TemperatureF,Dew PointF,Humidity,Sea Level PressureIn,VisibilityMPH,Wind Direction,Wind SpeedMPH,Gust SpeedMPH,PrecipitationIn,Events,Conditions,WindDirDegrees,DateUTC
12:52 AM,16.0,14.0,92,30.36,-9999.0,Calm,Calm,-,N/A,,Unknown,0,2012-12-30 06:52:00
1:52 AM,19.0,15.1,85,30.38,-9999.0,WSW,5.8,-,N/A,,Unknown,240,2012-12-30 07:52:00
2:52 AM,19.9,16.0,85,30.39,-9999.0,Calm,Calm,-,N/A,,Unknown,0,2012-12-30 08:52:00
3:52 AM,14.0,12.0,92,30.38,-9999.0,Calm,Calm,-,N/A,,Unknown,0,2012-12-30 09:52:00
4:52 AM,16.0,14.0,92,30.39,-9999.0,Calm,Calm,-,N/A,,Unknown,0,2012-12-30 10:52:00
5:52 AM,17.1,15.1,92,30.38,-9999.0,Calm,Calm,-,N/A,,Unknown,0,2012-12-30 11:52:00
7:52 AM,19.0,17.1,92,30.39,-9999.0,South,4.6,-,N/A,,Unknown,180,2012-12-30 13:52:00
8:52 AM,21.9,18.0,85,30.39,-9999.0,South,5.8,-,N/A,,Unknown,180,2012-12-30 14:52:00
9:52 AM,27.0,19.9,75,30.39,-9999.0,South,6.9,-,N/A,,Unknown,190,2012-12-30 15:52:00
10:52 AM,32.0,21.9,66,30.38,-9999.0,South,6.9,-,N/A,,Unknown,180,2012-12-30 16:52:00
11:52 AM,35.1,21.9,59,30.33,-9999.0,South,5.8,-,N/A,,Unknown,180,2012-12-30 17:52:00
12:52 PM,39.9,24.1,53,30.27,-9999.0,SSW,11.5,-,N/A,,Unknown,200,2012-12-30 18:52:00
1:52 PM,41.0,23.0,49,30.24,-9999.0,South,10.4,-,N/A,,Unknown,180,2012-12-30 19:52:00
2:52 PM,42.1,23.0,47,30.22,-9999.0,South,10.4,-,N/A,,Unknown,180,2012-12-30 20:52:00
3:52 PM,41.0,23.0,49,30.21,-9999.0,South,11.5,-,N/A,,Unknown,180,2012-12-30 21:52:00
4:52 PM,41.0,24.1,51,30.17,-9999.0,South,11.5,23.0,N/A,,Unknown,180,2012-12-30 22:52:00
5:52 PM,41.0,21.9,47,30.17,-9999.0,South,13.8,-,N/A,,Unknown,180,2012-12-30 23:52:00
6:52 PM,39.0,23.0,53,30.18,-9999.0,South,12.7,23.0,N/A,,Unknown,190,2012-12-31 00:52:00
7:52 PM,37.9,24.1,57,30.18,-9999.0,South,9.2,-,N/A,,Unknown,190,2012-12-31 01:52:00
8:52 PM,37.9,23.0,55,30.17,-9999.0,SSW,11.5,-,N/A,,Unknown,200,2012-12-31 02:52:00
9:52 PM,37.9,21.9,53,30.15,-9999.0,South,9.2,-,N/A,,Unknown,190,2012-12-31 03:52:00
10:52 PM,37.0,19.9,50,30.16,-9999.0,South,8.1,-,N/A,,Unknown,190,2012-12-31 04:52:00
11:52 PM,37.0,21.9,54,30.16,-9999.0,SSW,8.1,-,N/A,,Unknown,200,2012-12-31 05:52:00